Location: Newark
(53.3333°N, 83.7500°E)
Time: 06:07:48
(UTC+00:00)

SR - Pass Details

Date: 14 November 2019
Orbit: 573 x 882 km, 66.7° (Epoch: 12 December)

Event Time Altitude Azimuth Distance (km) Brightness Sun altitude
Rises 11:16:28 0° 223° (SW) 3,206 ? -6.9°
Reaches altitude 10° 11:18:46 10° 225° (SW) 2,329 ? -7.3°
Maximum altitude 11:24:10 79° 311° (NW) 846 ? -8.0°
Drops below altitude 10° 11:30:02 10° 40° (NE) 2,510 ? -8.8°
Enters shadow 11:30:54 - 40° (NE) 2,837 ? -9.0°
